Location: Molino di Ancona
(43.6167°N, 13.3667°E)
Time: 21:57:24
(UTC+00:00)

Cosmos 1441 Rocket - Pass Details

Date: 15 December 2019
Orbit: 496 x 541 km, 81.1° (Epoch: 26 January)

Event Time Altitude Azimuth Distance (km) Brightness Sun altitude
Rises 05:27:02 0° 179° (S) 2,683 7.1 -11.4°
Reaches altitude 10° 05:29:12 10° 176° (S) 1,793 6.3 -11.1°
Maximum altitude 05:33:05 58° 97° (E) 628 4.0 -10.4°
Drops below altitude 10° 05:36:58 10° 18° (NNE) 1,790 5.9 -9.8°
Sets 05:39:08 0° 15° (NNE) 2,678 6.7 -9.4°
